Weather reports worldwide

Advertisment
Wilkes-Barre/Scrant PA, United States of America (72513): temperature & dewpoint: 31.05.2020 13:00:00 - 06.06.2020 13:00:00 (EDT)Wilkes-Barre/Scrant PA, United States of America (72513): wind speed: 31.05.2020 13:00:00 - 06.06.2020 13:00:00 (EDT)Wilkes-Barre/Scrant PA, United States of America (72513): wind direction: 31.05.2020 13:00:00 - 06.06.2020 13:00:00 (EDT)Wilkes-Barre/Scrant PA, United States of America (72513): reduced air pressure: 31.05.2020 13:00:00 - 06.06.2020 13:00:00 (EDT)Wilkes-Barre/Scrant PA, United States of America (72513): visibility: 31.05.2020 13:00:00 - 06.06.2020 13:00:00 (EDT)Wilkes-Barre/Scrant PA, United States of America (72513): precipitation: 31.05.2020 13:00:00 - 06.06.2020 13:00:00 (EDT)
Date & Time tt [°C] td [°C] ff [km/h] ff [kn] dd ppp [hPa] vv [km] rr [mm]
06.06.2020 13:00:00 27,2 18,3 0 0 N 1008,3 16 -
06.06.2020 12:00:00 27,2 19,4 - - - 1009,0 16 -
06.06.2020 11:00:00 24,4 18,9 8 4 W 1009,6 16 0,0
06.06.2020 10:00:00 23,9 18,9 16 9 SW 1009,7 15 -
06.06.2020 09:00:00 22,2 18,9 16 9 WSW 1009,9 13 -
06.06.2020 08:00:00 21,7 18,9 13 7 WSW 1009,6 13 0,0
06.06.2020 07:00:00 21,1 18,9 13 7 SW 1009,4 11 -
06.06.2020 06:00:00 21,1 18,9 13 7 SW 1009,4 11 -
06.06.2020 05:00:00 20,6 18,3 9 5 SW 1009,0 16 0,0
06.06.2020 04:00:00 20,0 17,8 5 3 SW 1008,7 16 -
06.06.2020 03:00:00 20,0 17,8 8 4 W 1009,1 16 -
06.06.2020 02:00:00 19,4 17,8 5 3 SSE 1009,6 16 0,0
06.06.2020 01:00:00 20,0 17,8 0 0 N 1010,3 16 -
06.06.2020 00:00:00 22,2 18,3 0 0 N 1010,1 16 -
05.06.2020 23:00:00 22,2 18,3 5 3 S 1010,6 16 0,0
05.06.2020 22:00:00 23,3 18,3 9 5 WSW 1010,9 16 -
05.06.2020 21:00:00 25,0 19,4 9 5 - 1010,6 16 -
05.06.2020 20:00:00 26,1 17,8 9 5 SW 1010,1 16 0,0
05.06.2020 19:00:00 26,7 17,2 13 7 WSW 1010,0 4,8 -
05.06.2020 18:00:00 27,2 17,8 15 8 SW 1009,7 13 -
05.06.2020 17:00:00 27,8 18,3 15 8 SW 1009,8 16 0,0
05.06.2020 16:00:00 27,2 17,8 13 7 SW 1010,7 16 -
05.06.2020 15:00:00 27,2 18,3 16 9 WSW 1011,1 16 -
05.06.2020 14:00:00 26,7 18,9 13 7 SW 1011,9 16 0,0
05.06.2020 13:00:00 24,4 18,3 9 5 SSW 1012,6 16 -
05.06.2020 12:00:00 23,3 18,3 11 6 WSW 1013,0 16 -
05.06.2020 11:00:00 22,8 18,3 11 6 W 1013,0 16 0,0
05.06.2020 10:00:00 21,7 18,3 11 6 SW 1012,5 16 -
05.06.2020 09:00:00 20,6 18,3 8 4 WSW 1012,6 16 -
05.06.2020 08:00:00 20,0 18,3 9 5 SSW 1012,1 15 -
05.06.2020 07:00:00 20,0 18,3 5 3 SSW 1011,6 15 -
05.06.2020 06:00:00 19,4 17,8 0 0 N 1011,2 11 0,0
05.06.2020 05:00:00 18,9 17,8 0 0 N 1011,4 15 0,0
05.06.2020 04:00:00 19,4 17,8 8 4 WNW 1011,3 16 0,5
05.06.2020 03:00:00 18,9 17,2 0 0 N 1011,4 11 0,0
05.06.2020 02:00:00 18,9 17,2 0 0 N 1011,1 16 -
05.06.2020 01:00:00 18,9 17,8 0 0 N 1011,2 15 0,0
05.06.2020 00:00:00 19,4 17,2 9 5 N 1011,8 16 0,8
04.06.2020 23:00:00 19,4 16,7 0 0 N 1012,8 6 2,8
04.06.2020 22:00:00 21,7 18,3 16 9 SW 1012,0 16 0,0
04.06.2020 21:00:00 22,2 18,9 8 4 - 1010,4 16 0,0
04.06.2020 20:00:00 23,3 18,3 5 3 - 1011,1 10 0,3
04.06.2020 19:00:00 26,7 16,1 0 0 N 1011,0 16 -
04.06.2020 18:00:00 27,2 15,0 0 0 N 1010,4 16 -
04.06.2020 17:00:00 27,2 13,9 9 5 SW 1010,5 16 -
04.06.2020 16:00:00 25,6 13,9 8 4 SSW 1011,0 16 0,0
04.06.2020 15:00:00 26,7 11,1 15 8 WSW 1011,5 16 0,0
04.06.2020 14:00:00 29,4 11,7 21 11 WSW 1011,0 16 0,0
04.06.2020 13:00:00 28,3 12,2 13 7 SW 1011,4 16 -
04.06.2020 12:00:00 26,7 13,9 13 7 S 1011,7 16 -
04.06.2020 11:00:00 25,6 16,1 16 9 WSW 1011,6 16 0,0
04.06.2020 10:00:00 23,3 - 13 7 WSW 1011,8 - -
04.06.2020 09:00:00 21,7 16,7 9 5 SW 1011,4 16 -
04.06.2020 08:00:00 19,4 16,7 0 0 N 1011,0 15 0,0
04.06.2020 07:00:00 16,7 15,0 0 0 N 1010,6 11 -
04.06.2020 06:00:00 15,0 13,3 0 0 N 1009,8 6 -
04.06.2020 05:00:00 16,1 13,9 0 0 N 1009,3 10 0,0
04.06.2020 04:00:00 17,2 15,0 0 0 N 1008,6 16 -
04.06.2020 03:00:00 16,7 14,4 0 0 N 1008,3 16 -
04.06.2020 02:00:00 16,7 14,4 0 0 N 1008,1 16 0,0
04.06.2020 01:00:00 17,8 15,6 0 0 N 1007,9 16 -
04.06.2020 00:00:00 18,9 15,6 0 0 N 1007,4 16 -
03.06.2020 23:00:00 21,1 15,0 5 3 - 1006,6 16 0,0
03.06.2020 22:00:00 21,1 15,6 0 0 N 1006,0 16 -
03.06.2020 21:00:00 21,7 15,0 5 3 WSW 1005,2 16 -
03.06.2020 20:00:00 21,1 15,0 0 0 N 1004,9 16 -
03.06.2020 19:00:00 25,6 17,8 24 13 WSW 1002,7 16 0,0
03.06.2020 18:00:00 26,1 17,8 16 9 SW 1002,8 16 -
03.06.2020 17:00:00 25,0 17,8 11 6 SSW 1003,2 16 0,0
03.06.2020 16:00:00 24,4 17,8 21 11 SW 1003,3 16 -
03.06.2020 15:00:00 23,3 17,8 16 9 SW 1003,7 16 -
03.06.2020 14:00:00 21,1 17,2 15 8 SSW 1003,8 16 -
03.06.2020 13:00:00 19,4 17,2 16 9 SW 1004,5 16 1,3
03.06.2020 12:00:00 20,0 16,7 24 13 SW 1004,8 10 0,5
03.06.2020 11:00:00 23,3 16,7 22 12 WSW 1004,0 16 0,0
03.06.2020 10:00:00 22,8 16,7 9 5 SW 1004,0 16 -
03.06.2020 09:00:00 22,2 16,1 22 12 SW 1005,1 16 -
03.06.2020 08:00:00 20,6 16,1 15 8 SW 1004,5 16 -
03.06.2020 07:00:00 17,2 14,4 5 3 W 1005,1 16 -
03.06.2020 06:00:00 15,6 13,3 0 0 N 1005,1 16 -
03.06.2020 05:00:00 14,4 12,2 11 6 SSW 1005,2 16 0,0
03.06.2020 04:00:00 13,3 11,7 5 3 SSE 1005,7 15 -
03.06.2020 03:00:00 15,0 12,2 9 5 E 1005,8 16 -
03.06.2020 02:00:00 15,0 12,8 5 3 E 1005,9 16 -
03.06.2020 01:00:00 15,0 12,2 9 5 ESE 1007,1 16 1,5
03.06.2020 00:00:00 15,6 11,7 0 0 N 1008,2 16 0,5
02.06.2020 23:00:00 18,3 8,3 5 3 SW 1009,3 16 0,0
02.06.2020 22:00:00 18,3 8,9 8 4 - 1009,9 16 -
02.06.2020 21:00:00 18,9 8,3 5 3 SSW 1010,4 16 -
02.06.2020 20:00:00 19,4 7,8 15 8 WSW 1010,7 16 0,0
02.06.2020 19:00:00 19,4 7,2 15 8 WSW 1010,4 16 -
02.06.2020 18:00:00 20,0 8,9 9 5 WSW 1010,7 16 -
02.06.2020 17:00:00 19,4 8,9 11 6 W 1011,2 16 0,0
02.06.2020 16:00:00 19,4 8,9 15 8 W 1012,1 16 -
02.06.2020 15:00:00 18,3 8,9 13 7 SW 1013,2 16 -
02.06.2020 14:00:00 17,2 7,2 11 6 WSW 1014,7 16 -
02.06.2020 13:00:00 17,2 6,7 13 7 SW 1015,5 16 -
02.06.2020 12:00:00 17,8 7,2 16 9 WSW 1017,1 16 0,0
02.06.2020 11:00:00 16,7 6,1 16 9 WSW 1017,5 16 0,0
02.06.2020 10:00:00 16,7 6,1 11 6 SW 1017,8 16 -
02.06.2020 09:00:00 15,0 7,2 8 4 SW 1018,1 16 -
02.06.2020 08:00:00 13,3 7,2 0 0 N 1017,8 16 0,0
02.06.2020 07:00:00 12,2 6,1 0 0 N 1018,0 16 -
02.06.2020 06:00:00 9,4 5,0 0 0 N 1018,6 16 -
02.06.2020 05:00:00 10,6 5,0 0 0 N 1018,6 16 -
02.06.2020 04:00:00 10,0 4,4 0 0 N 1018,8 16 -
02.06.2020 03:00:00 10,0 4,4 0 0 N 1018,9 16 -
02.06.2020 02:00:00 11,1 3,9 5 3 SE 1019,0 16 0,0
02.06.2020 01:00:00 11,1 3,9 5 3 E 1019,5 16 -
02.06.2020 00:00:00 12,2 3,9 8 4 ESE 1019,6 16 -
01.06.2020 23:00:00 12,8 3,9 8 4 ESE 1020,0 16 0,0
01.06.2020 22:00:00 13,3 4,4 8 4 ESE 1019,7 16 -
01.06.2020 21:00:00 15,6 3,9 0 0 N 1019,3 16 -
01.06.2020 20:00:00 20,0 1,7 9 5 WNW 1019,3 16 0,0
01.06.2020 19:00:00 21,1 1,7 22 12 NW 1019,2 16 -
01.06.2020 18:00:00 21,7 1,7 18 10 NW 1019,2 16 -
01.06.2020 17:00:00 21,1 1,7 18 10 W 1019,7 16 0,0
01.06.2020 16:00:00 21,1 2,2 16 9 NW 1020,1 16 -
01.06.2020 15:00:00 20,0 1,1 21 11 NNW 1020,6 16 -
01.06.2020 14:00:00 - - - - - - - -
01.06.2020 13:00:00 - - - - - - - -
01.06.2020 12:00:00 - - - - - - - -
01.06.2020 11:00:00 - - - - - - - -
01.06.2020 10:00:00 12,8 3,3 - - - 1024,5 16 -
01.06.2020 09:00:00 11,1 3,3 5 3 SW 1025,2 16 -
01.06.2020 08:00:00 9,4 3,3 8 4 W 1025,1 16 0,0
01.06.2020 07:00:00 8,3 3,9 0 0 N 1024,8 16 -
01.06.2020 06:00:00 3,9 1,7 0 0 N 1024,4 16 -
01.06.2020 05:00:00 3,9 1,7 0 0 N 1023,8 16 0,0
01.06.2020 04:00:00 4,4 2,2 0 0 N 1023,1 16 -
01.06.2020 03:00:00 5,0 2,2 0 0 N 1023,1 16 -
01.06.2020 02:00:00 5,6 2,2 5 3 SE 1023,1 16 0,0
01.06.2020 01:00:00 6,7 2,2 0 0 N 1023,2 16 -
01.06.2020 00:00:00 8,9 1,7 0 0 N 1023,3 16 -
31.05.2020 23:00:00 10,0 1,7 0 0 N 1023,3 16 0,0
31.05.2020 22:00:00 11,7 0,6 11 6 N 1022,5 16 -
31.05.2020 21:00:00 12,8 0,6 11 6 N 1021,6 16 -
31.05.2020 20:00:00 15,0 0,0 18 10 N 1020,9 16 0,0
31.05.2020 19:00:00 16,1 1,1 21 11 N 1020,6 16 -
31.05.2020 18:00:00 17,2 1,7 21 11 N 1020,4 16 -
31.05.2020 17:00:00 17,2 2,2 24 13 NNW 1020,1 16 0,0
31.05.2020 16:00:00 18,3 2,2 28 15 NW 1020,1 16 -
31.05.2020 15:00:00 16,7 1,7 18 10 N 1019,8 16 -
31.05.2020 14:00:00 18,3 1,7 16 9 NNW 1019,5 16 0,0
31.05.2020 13:00:00 17,2 2,8 21 11 NNW 1019,8 16 -

tt = temperature
td = dewpoint
ff = wind speed
dd = wind direction
ppp = reduced air pressure
vv = visibility
rr = precipitation

Next stations